Tracking 32427 objects as of 10-Dec-2025
HD Live streaming from Space Station
objects crossing your sky now

OBJECT V

Track OBJECT V now!
10-day predictions


NORAD ID: 64895
Int'l Code: 2025-155V
Perigee: 490.5 km
Apogee: 503.6 km
Inclination: 97.4 °
Period: 94.4 minutes
Semi major axis: 6868 km
RCS: Unknown
Launch date: July 25, 2025
Source: (TBD)
Launch site: VOSTOCHNY COSMODROME (VOSTO)
Your satellite tracking list
Your tracking list is empty




NASA's NSSDC Master Catalog

Two Line Element Set (TLE):
1 64895U 25155V   25344.17939226  .00015667  00000-0  62383-3 0  9997
2 64895  97.4356 307.9385 0009497 117.4031 242.8174 15.25289833 51896
Source of the keplerian elements: AFSPC